Weather History for St. Joseph, MO

Change the Weather History Date:

Friday, June 28, 2013

  Actual Average Record
Temperature  
Mean Temperature 76 °F 76 °F  
Max Temperature 88 °F 86 °F 102 °F (1936)
Min Temperature 64 °F 66 °F 54 °F (2006)
Degree Days  
Heating Degree Days 0 0  
Month to date heating degree days 15 6  
Since 1 June heating degree days 15 6  
Since 1 July heating degree days 5614 5456  
Cooling Degree Days 11 11  
Month to date cooling degree days 262 245  
Year to date cooling degree days 388 358  
Since 1 June cooling degree days 262 245  
Growing Degree Days 26 (Base 50)    
Moisture  
Dew Point 63 °F    
Average Humidity 66    
Maximum Humidity 100    
Minimum Humidity 32    
Precipitation  
Precipitation 0.00 in 0.11 in 3.23 in (1959)
Month to date precipitation 2.09 3.99  
Year to date precipitation 16.14 16.94  
Sea Level Pressure  
Sea Level Pressure 29.90 in    
Wind  
Wind Speed 9 mph (NW)    
Max Wind Speed 24 mph    
Max Gust Speed 29 mph    
Visibility 6 miles    
Events      
T = Trace of Precipitation, MM = Missing Value Source: NWS Daily Summary

Daily Weather History Graph

Daily Weather History Graph

Search for Another Location

Airport:

Trip Planner

Search our weather history database for the weather conditions in past years. The results will help you decide how hot, cold, wet, or windy it might be!

Date:

Astronomy

Jun. 28, 2013 Rise Set
Actual Time 5:54 AM CDT 8:51 PM CDT
Civil Twilight 5:21 AM CDT 9:24 PM CDT
Nautical Twilight 4:40 AM CDT 10:05 PM CDT
Astronomical Twilight 3:52 AM CDT 10:53 PM CDT
Moon No Moon Rise 12:01 PM CDT (6/28)
Length of Visible Light 16h 03m
Length of Day
14h 57m
Waning Gibbous, 66% of the Moon is Illuminated
Jun 28
Waning Gibbous
Jun 29
Last Quarter
Jul 8
New
Jul 15
First Quarter
Jul 22
Full

Hourly Weather History & Observations

Time (CDT) Temp. Heat Index Dew Point Humidity Pressure Visibility Wind Dir Wind Speed Gust Speed Precip Events Conditions
12:53 AM 71.1 °F - 69.1 °F 93% 29.92 in 10.0 mi Calm Calm - N/A   Clear
1:53 AM 70.0 °F - 69.1 °F 97% 29.91 in 10.0 mi SW 4.6 mph - N/A   Clear
2:39 AM 69.8 °F - 68.0 °F 94% 29.92 in 1.5 mi Calm Calm - N/A   Clear
2:45 AM 66.2 °F - 66.2 °F 100% 29.92 in 0.5 mi Calm Calm - N/A   Clear
2:53 AM 68.0 °F - 66.9 °F 96% 29.91 in 1.0 mi Calm Calm - N/A   Clear
3:03 AM 68.0 °F - 66.2 °F 94% 29.92 in 0.5 mi Calm Calm - N/A   Clear
3:15 AM 66.2 °F - 64.4 °F 94% 29.92 in 0.2 mi Calm Calm - N/A   Unknown
3:53 AM 64.0 °F - 63.0 °F 96% 29.89 in 0.5 mi Calm Calm - N/A   Unknown
4:19 AM 64.4 °F - 64.4 °F 100% 29.92 in 1.0 mi Calm Calm - N/A   Unknown
4:27 AM 66.2 °F - 64.4 °F 94% 29.92 in 0.8 mi Calm Calm - N/A   Clear
4:32 AM 66.2 °F - 64.4 °F 94% 29.92 in 0.5 mi Calm Calm - N/A   Unknown
4:53 AM 64.0 °F - 64.0 °F 100% 29.91 in 0.2 mi Calm Calm - N/A   Unknown
5:10 AM 66.2 °F - 66.2 °F 100% 29.92 in 1.0 mi Variable 4.6 mph - N/A   Unknown
5:13 AM 66.2 °F - 64.4 °F 94% 29.92 in 2.5 mi Variable 4.6 mph - N/A   Scattered Clouds
5:20 AM 66.2 °F - 64.4 °F 94% 29.92 in 5.0 mi SW 4.6 mph - N/A   Partly Cloudy
5:53 AM 66.0 °F - 64.9 °F 96% 29.92 in 3.0 mi SW 3.5 mph - N/A   Clear
6:53 AM 68.0 °F - 66.9 °F 96% 29.94 in 10.0 mi SW 3.5 mph - N/A   Clear
7:53 AM 70.0 °F - 68.0 °F 93% 29.93 in 10.0 mi Calm Calm - N/A   Clear
8:53 AM 75.0 °F - 66.9 °F 76% 29.93 in 10.0 mi NNW 9.2 mph - N/A   Scattered Clouds
9:53 AM 78.1 °F - 66.9 °F 68% 29.93 in 10.0 mi NNW 6.9 mph - N/A   Clear
10:53 AM 82.0 °F 83.8 °F 64.9 °F 56% 29.93 in 10.0 mi North 12.7 mph - N/A   Clear
11:53 AM 84.0 °F 84.4 °F 61.0 °F 46% 29.93 in 10.0 mi NNW 13.8 mph - N/A   Clear
12:53 PM 84.9 °F 85.0 °F 61.0 °F 44% 29.93 in 10.0 mi North 16.1 mph - N/A   Partly Cloudy
1:53 PM 86.0 °F 85.0 °F 57.9 °F 38% 29.91 in 10.0 mi NNW 21.9 mph 26.5 mph N/A   Clear
2:53 PM 87.1 °F 85.9 °F 57.0 °F 36% 29.90 in 10.0 mi NW 17.3 mph 24.2 mph N/A   Clear
3:53 PM 87.1 °F 85.7 °F 55.9 °F 35% 29.88 in 10.0 mi NNW 18.4 mph 26.5 mph N/A   Clear
4:53 PM 87.1 °F 85.3 °F 55.0 °F 33% 29.88 in 10.0 mi NNW 19.6 mph 27.6 mph N/A   Partly Cloudy
5:53 PM 86.0 °F 84.2 °F 54.0 °F 33% 29.87 in 10.0 mi NNW 17.3 mph 26.5 mph N/A   Partly Cloudy
6:53 PM 84.9 °F 83.6 °F 55.0 °F 36% 29.85 in 10.0 mi NNW 12.7 mph 19.6 mph N/A   Clear
7:53 PM 82.0 °F 82.1 °F 59.0 °F 45% 29.85 in 10.0 mi NW 8.1 mph - N/A   Clear
8:53 PM 73.9 °F - 59.0 °F 59% 29.85 in 10.0 mi WNW 5.8 mph - N/A   Clear
9:53 PM 71.1 °F - 60.1 °F 68% 29.86 in 10.0 mi West 5.8 mph - N/A   Clear
10:53 PM 70.0 °F - 59.0 °F 68% 29.86 in 10.0 mi WNW 5.8 mph - N/A   Clear
11:53 PM 69.1 °F - 59.0 °F 70% 29.85 in 10.0 mi Calm Calm - N/A   Clear